Location: Wellington
(33.6398°S, 19.0112°E)
Time: 10:15:53
(UTC+00:00)

Daily predictions for brighter satellites

Satellite Brightness Start Highest point End
(mag) Time Altitude Azimuth Time Altitude Azimuth Time Altitude Azimuth
Cosmos 2279 Rocket 4.2 17:42:02 10° S 17:48:19 79° W 17:54:30 10° N
YAOGAN 1 2.7 17:44:46 10° SSE 17:49:02 54° E 17:53:12 10° N
YAOGAN 11 4.1 17:45:40 10° NNE 17:49:51 60° ESE 17:54:05 10° S
Sakura Rocket 4.3 17:46:52 10° WNW 17:50:02 25° NNW 17:53:40 10° NE
Cosmos 540 Rocket 3.9 17:48:15 10° NNE 17:52:55 38° E 17:57:38 10° SE
Cosmos 2228 4.1 17:50:21 10° SSW 17:54:21 47° W 17:58:19 10° NNW
Cosmos 1763 Rocket 3.6 17:53:24 10° N 17:58:18 53° ENE 18:03:15 10° SSE
Resurs 1-3 3.5 17:56:36 10° SSE 18:00:59 73° ENE 18:05:16 10° N
Cosmos 1486 Rocket 4.2 17:58:50 10° S 18:04:03 56° ESE 18:09:09 10° NNE
Cosmos 2058 3.9 18:01:13 10° NNW 18:05:06 49° W 18:09:02 10° S
Hubble Space Telescope 1.3 18:06:12 10° WNW 18:09:45 37° N 18:12:53 13° ENE
Lacrosse 5 rocket 2.4 18:07:03 10° SW 18:10:39 38° NW 18:14:14 10° NNE
Cosmos 2360 4.2 18:08:28 10° SSW 18:14:12 72° ESE 18:19:52 10° NNE
Cosmos 1777 Rocket 4.2 18:10:36 10° S 18:15:46 54° ESE 18:20:45 11° NNE
Cosmos 1092 Rocket 4.1 18:10:05 10° NNE 18:16:01 52° E 18:22:00 10° SSE
EXPRESS MD2 2.7 18:14:00 10° WSW 18:16:29 45° NW 18:18:05 15° NNE
Cosmos 1606 Rocket 4.0 18:13:07 10° S 18:17:16 42° E 18:21:08 11° NNE
BREEZE-M DEB 3.2 18:15:22 10° WNW 18:17:28 42° SSW 18:20:22 10° SE
Cosmos 2082 Rocket 3.2 18:13:16 10° NNE 18:17:41 24° E 18:22:09 10° SE
Cosmos 1697 Rocket 3.6 18:12:55 10° S 18:18:01 33° ESE 18:22:09 14° ENE
Resurs 01 Rocket 1.9 18:17:01 10° SSE 18:21:19 47° E 18:25:34 10° N
Cosmos 2026 Rocket 4.0 18:16:17 10° N 18:22:31 70° E 18:28:54 10° S
CARTOSAT-1 3.4 18:19:41 10° SSE 18:23:57 69° E 18:28:10 10° N
Cosmos 1346 Rocket 2.6 18:23:26 10° N 18:27:04 60° E 18:30:45 10° SSE
Centaur D-1A AC-32 4.3 18:24:00 10° NNW 18:28:30 33° NE 18:42:53 10° E
SEDSat Delta rocket 4.0 18:28:54 10° WNW 18:35:30 69° N 18:41:03 14° E
Cosmos 841 Rocket 4.3 18:35:17 16° NNE 18:38:23 29° E 18:42:49 10° SE
COBE Rocket 3.9 18:36:17 11° NNE 18:40:53 83° ESE 18:45:57 10° S
Gbstr 26 Del rocket 3.2 18:35:39 10° SW 18:41:07 88° SE 18:43:49 24° NE
Cosmos 1892 Rocket 3.5 18:36:45 10° N 18:41:13 80° E 18:45:44 10° S
Meteor 1-31 Rocket 2.7 18:38:11 10° SSE 18:41:41 50° E 18:43:55 19° N
Cosmos 2058 Rocket 4.0 18:41:48 10° SSE 18:45:38 29° ESE 18:46:52 25° ENE
IRIDIUM 104 4.3 18:41:44 10° N 18:46:57 80° E 18:52:15 10° S
NOSS 3-2 (C) 3.9 18:44:17 10° SW 18:49:49 47° WNW 18:53:48 14° N
COSMOS 2406 4.2 18:49:44 23° ENE 18:50:34 24° E 18:55:05 10° SE
SPOT 5 3.8 18:46:39 10° SE 18:51:00 30° E 18:52:17 27° NE
Exosat Rocket 4.5 18:45:04 10° N 18:51:33 37° ENE 18:56:37 10° SE
Cosmos 468 Rocket 3.9 18:46:27 10° NNW 18:51:34 89° W 18:56:45 10° SSE
SJ-6B 2.8 18:48:36 10° S 18:52:10 70° WSW 18:55:38 10° NNW
Cosmos 1626 Rocket 4.4 18:53:24 29° ENE 18:54:01 30° E 18:57:49 10° SSE
IRIDIUM 114 4.4 18:50:51 10° N 18:56:06 83° W 19:01:25 10° S
Cosmos 1726 Rocket 3.4 18:53:19 10° S 18:57:29 86° W 18:59:59 23° N
USA 59 Rocket 3.6 18:52:10 10° S 18:57:54 16° SSE 19:03:05 10° ESE
Cosmos 1354 Rocket 4.0 18:53:43 10° SSW 18:59:05 82° ESE 19:02:08 26° NNE
Timation 1 Rocket 4.4 18:58:46 10° NNW 19:04:46 84° WSW 19:10:51 10° SSE
Cosmos 489 Rocket 4.4 19:00:23 10° N 19:06:34 77° ENE 19:12:50 10° SSE
ATLAS 5 CENTAUR R/B 2.7 19:00:08 10° NNW 19:07:10 89° ENE 19:14:20 10° SSE
RESURS DK-1 2.7 19:04:56 10° NNW 19:08:52 63° WSW 19:12:52 10° SSE
Cosmos 1980 Rocket 2.9 19:05:00 10° S 19:10:21 40° ESE 19:12:09 32° ENE
Meteor 2-2 Rocket 4.5 19:04:45 10° S 19:10:47 60° E 19:13:24 33° NE
OAO 1 Rocket 4.4 19:05:46 10° W 19:11:10 90° ESE 19:13:29 35° ENE
CZ-4B R/B 4.0 19:06:40 10° SE 19:11:03 28° E 19:11:03 28° E
Aureole 1 Rocket 3.9 19:07:34 10° S 19:11:17 28° ESE 19:11:20 28° ESE
CZ-4B R/B 4.3 19:07:31 10° S 19:11:37 62° WSW 19:15:16 12° NNW
Cosmos 2266 Rocket 4.3 19:10:46 33° NE 19:12:43 42° E 19:18:24 10° SSE
CZ-4B DEB 4.3 19:11:54 10° SSE 19:17:17 53° E 19:19:03 38° NNE
Centaur AC-116 3.9 19:11:37 10° W 19:18:21 33° NNW 19:18:37 33° N
SL-24 R/B 4.5 19:19:04 43° E 19:19:29 45° ESE 19:23:35 10° S
Geosat 4.2 19:16:45 10° SE 19:21:35 45° ENE 19:21:50 45° ENE
CZ-4 R/B 1.0 19:19:39 10° SSE 19:23:24 89° E 19:23:47 71° N
Okean 1 3.6 19:21:48 10° S 19:24:52 46° SE 19:24:52 46° SE
Atlas Centaur 2 2.2 19:24:11 10° WNW 19:29:28 65° N 19:31:15 45° ENE
ERS-1 Rocket 3.8 19:27:43 10° SSE 19:31:31 33° ESE 19:31:31 33° ESE
Cosmos-2242 2.8 19:29:29 10° S 19:33:41 82° W 19:34:04 71° NNW
USA 238 DEB 3.4 19:36:21 10° SW 19:42:43 73° WNW 19:44:23 49° N
USA 238 3.4 19:36:26 10° SW 19:42:50 74° WNW 19:44:28 50° N
Hubble Space Telescope 2.9 19:46:00 10° WNW 19:47:05 16° WNW 19:47:05 16° WNW
CSL-04 Rocket 4.0 19:44:39 10° S 19:49:55 62° WSW 19:52:41 28° NW
Cosmos 1898 Rocket 3.5 19:44:45 10° S 19:50:04 66° ESE 19:50:17 65° E
S3M 4.0 19:45:52 10° S 19:52:02 58° E 19:52:43 55° ENE
Cosmos 1461 3.9 19:51:29 10° SW 19:53:56 35° WSW 19:53:56 35° WSW
Cosmos 1758 Rocket 4.1 19:56:32 51° W 19:56:53 53° W 20:01:09 10° S
Helios 1A 4.0 19:57:00 37° WNW 19:57:08 37° W 20:00:57 10° SSW
ADEOS 3.5 19:52:12 10° S 19:57:30 82° WSW 19:58:22 62° NNW
USA 215 3.5 19:53:26 10° SE 19:58:37 46° E 19:58:37 46° E
Cosmos 2333 Rocket 4.1 19:57:14 10° SSE 20:00:37 16° SE 20:00:56 16° ESE
Cosmos 2082 Rocket 3.5 19:56:10 10° NW 20:01:26 39° WSW 20:06:46 10° S
Cosmos 1697 Rocket 4.2 19:57:00 10° SW 20:01:46 28° WNW 20:03:53 22° NW
SL-16 R/B 3.7 19:58:45 10° S 20:03:13 23° ESE 20:03:13 23° ESE
Cosmos 1655 Rocket 4.0 20:05:51 63° E 20:05:55 63° E 20:12:06 10° SSE
Okean-O 4.2 20:02:20 10° SSE 20:04:30 27° SE 20:04:30 27° SE
CZ-3 Stage 3 3.6 20:06:01 10° W 20:08:27 18° WNW 20:08:27 18° WNW
Cosmos 967 Rocket 4.5 20:04:15 10° SSW 20:10:28 62° ESE 20:10:49 61° ESE
Cosmos 2369 3.6 20:04:51 10° SSW 20:10:29 74° ESE 20:10:29 74° ESE
Cosmos 2151 3.9 20:12:11 45° SSW 20:12:11 45° SSW 20:15:16 10° S
IRS-1A Rocket 4.4 20:14:42 10° SSE 20:19:43 64° SE 20:19:43 64° SE
SEDSat Delta rocket 4.0 20:15:07 10° W 20:20:46 61° NW 20:20:46 61° NW
USA 281 3.2 20:16:13 10° SSE 20:22:50 78° WSW 20:24:43 50° NW
Meteor 1-25 Rocket 4.4 20:25:01 66° SE 20:25:01 66° SE 20:30:03 10° SSE
Spot 2 Rocket 4.4 20:23:52 10° SSE 20:27:16 41° SSE 20:27:16 41° SSE
Terra 2.5 20:24:44 10° S 20:28:38 52° SSW 20:28:38 52° SSW
Cosmos 2315 Rocket 3.9 20:24:56 10° S 20:31:06 86° SW 20:31:06 86° SW
Okean O Rocket 2.9 20:29:24 10° S 20:32:11 37° S 20:32:11 37° S
COSMOS 2406 4.4 20:31:37 24° WNW 20:34:31 39° WSW 20:39:55 10° S
Cosmos 2221 4.0 20:30:53 10° SSW 20:33:28 34° SSW 20:33:28 34° SSW
Meteor 1-27 Rocket 4.4 20:41:48 10° S 20:45:53 47° SSE 20:45:53 47° SSE
USA 59 Rocket 1.9 20:40:41 10° SSW 20:49:58 52° SE 20:51:04 49° ESE
Cosmos 1980 Rocket 3.9 20:49:37 10° SW 20:53:55 23° W 20:53:55 23° W
COSMOS 2455 3.2 20:51:12 10° SSW 20:56:07 61° SSW 20:56:07 61° SSW
Atlas Centaur 2 4.3 21:11:56 10° W 21:13:12 17° W 21:13:12 17° W
Cosmos 2360 Rocket 3.4 21:22:00 10° SSW 21:25:40 38° S 21:25:40 38° S
Cosmos 2322 Rocket 3.4 21:29:13 10° SSW 21:32:41 39° S 21:32:41 39° S
USA 215 4.3 21:36:35 10° SSE 21:42:39 40° SW 21:45:53 25° W
Cosmos 2333 Rocket 3.6 21:39:43 10° SSW 21:42:57 34° SW 21:42:57 34° SW
SL-16 R/B 3.8 21:42:04 10° SW 21:45:04 28° SW 21:45:04 28° SW
Cosmos 2219 Rocket 3.6 21:54:58 10° SSW 21:58:08 34° S 21:58:08 34° S
USA 267 4.2 22:11:29 39° SE 22:12:10 40° SE 22:18:14 10° SSW
ATLAS 2AS CENTAUR R/B 3.3 22:31:50 55° SSW 22:31:50 55° SSW 22:37:48 10° SSE
USA 59 Rocket 2.8 22:31:08 10° SW 22:36:44 30° WSW 22:36:44 30° WSW
Cosmos 2297 Rocket 3.8 22:46:34 30° SE 22:46:34 30° SE 22:49:23 10° SSE
COSMOS 2428 4.1 22:44:46 10° SSW 22:48:11 35° S 22:48:11 35° S
Cosmos 2237 Rocket 3.9 22:57:11 10° S 23:01:32 27° SE 23:01:32 27° SE
ATLAS 3B R/B 4.1 23:02:57 10° S 23:08:18 28° SE 23:10:25 24° E
Cosmos 2227 Rocket 3.3 23:34:10 41° SE 23:34:10 41° SE 23:37:50 10° SSE
CZ-2C R/B 4.3 23:31:25 10° SE 23:34:39 28° ESE 23:34:39 28° ESE
